[[{"header":{"parameterUnit":"m.s-1","parameterCategory":1,"la1":30.2991,"la2":30.254,"lo1":-89.0895,"lo2":-89.0444,"dy":0.0017,"dx":0.0017,"nx":28,"ny":28,"refTime":"2024-02-19T03:00:00:Z","depth":0,"parameterNumber":2,"parameterNumberName":"U-component_of_WINDS"},"data":[0,0,0,0,0,0,0,0,0,0,0,0,0,0,0,0,0,0,0,0,0,0,0,0,0,0,0,0,0,0,0,0,0,0,0,0,0,0,0,0,0,0,0,0,0,0,0,0,0,0,0,0,0,0,0,0,0,0,2.0621,2.0621,0,2.0621,2.0621,2.0621,2.0584,2.0583,2.0582,2.0581,2.0582,2.0583,2.0584,0,0,0,0,0,0,0,0,0,0,0,0,0,2.0594,2.0595,2.0621,2.0621,2.0621,2.0621,2.0621,2.0621,2.0584,2.0583,2.0582,2.0581,2.0582,2.0583,2.0584,0,0,0,0,0,0,0,0,0,0,0,0,0,2.0601,2.0595,2.0621,2.0603,2.0601,2.0621,2.0621,2.0621,2.0585,2.0583,2.0582,2.058,2.0582,2.0583,2.0584,2.0621,0,0,2.0588,2.0589,0,0,0,0,0,0,0,0,2.0601,2.0602,2.0606,2.0604,2.0603,2.0601,2.0611,2.0621,2.0585,2.0591,2.0581,2.058,2.059,2.059,2.0593,2.0621,2.0621,2.0588,2.0589,2.059,2.059,0,0,0,0,0,0,0,2.06,2.0602,2.0621,2.0606,2.0604,2.0596,2.0595,2.0613,2.0598,2.059,2.0588,2.0588,2.0589,2.0592,2.0593,2.0621,2.0588,2.059,2.059,2.0591,2.0681,2.0683,0,0,0,0,0,0,2.0602,2.0602,2.0621,2.0621,2.0598,2.0598,2.0597,2.0603,2.0598,2.0596,2.0589,2.0586,2.0591,2.0592,2.0593,2.0637,2.059,2.0591,2.0592,2.068,2.0682,2.0683,0,0,0,0,0,0,2.0602,2.0604,2.0621,2.0611,2.0612,2.06,2.0607,2.0604,2.0607,2.0597,2.0595,2.0595,2.0589,2.0591,2.0615,2.0636,2.0592,2.0593,2.0678,2.068,2.0682,2.0724,0,0,0,0,0,0,2.0601,2.0604,2.0617,2.0611,2.0613,2.0642,2.0608,2.0605,2.0609,2.0606,2.0602,2.06,2.0588,2.0613,2.0616,2.0637,2.0594,2.0676,2.0679,2.0682,2.0721,2.0728,2.0733,0,0,0,0,0,2.06,2.0629,2.0618,2.062,2.0629,2.0643,2.0644,2.0629,2.0611,2.0625,2.0619,2.0601,2.0634,2.0616,2.0619,2.0641,2.0674,2.0678,2.0681,2.0718,2.0726,2.0733,0,0,0,0,0,0,2.0637,2.0628,2.0615,2.0643,2.0644,2.0637,2.0653,2.0639,2.0645,2.0641,2.0623,2.0623,2.065,2.0648,2.0628,2.0677,2.0651,2.0655,2.0677,2.0685,2.0692,2.0691,2.0595,0,0,0,0,0,2.0649,2.0661,2.0652,2.0677,2.0678,2.0666,2.0672,2.066,2.0661,2.0662,2.0657,2.0659,2.067,2.0678,2.0687,2.0721,2.072,2.0738,2.0744,2.0749,2.0753,2.0772,2.078,2.0695,2.0695,2.0695,0,0,2.0673,2.0669,2.0677,2.0685,2.0684,2.0698,2.0667,2.0682,2.0692,2.0664,2.0686,2.0683,2.0685,2.0714,2.0726,2.0713,2.0777,2.0754,2.0758,2.0759,2.0777,2.0785,2.0792,2.0697,2.0697,2.0697,0,0,2.0723,2.0721,2.0742,2.0743,2.0743,2.0735,2.074,2.0736,2.0733,2.0754,2.0734,2.0747,2.0766,2.0768,2.0771,2.0825,2.0809,2.0829,2.0862,2.0881,2.0887,2.0893,2.0913,2.092,2.0833,2.0833,2.0833,0,2.0752,2.0771,2.0755,2.0772,2.0777,2.0752,2.0774,2.0776,2.0779,2.0783,2.0768,2.0793,2.0792,2.0822,2.0835,2.0839,2.0845,2.0829,2.0888,2.0893,2.0899,2.0917,2.0925,2.0835,2.0835,2.0835,2.0835,0,2.0808,2.0822,2.0839,2.0843,2.085,2.0869,2.0857,2.0866,2.0855,2.0849,2.0873,2.0871,2.088,2.0887,2.0876,2.0916,2.0908,2.0891,2.0863,2.0909,2.0927,2.0934,2.0839,2.0838,2.0837,2.0837,0,0,2.088,2.0876,2.0883,2.0885,2.0884,2.0895,2.0915,2.0924,2.0932,2.0936,2.0952,2.097,2.0955,2.0959,2.0948,2.0965,2.1009,2.0946,2.0946,2.0958,2.1054,2.1067,2.1075,2.0999,2.1,2.1001,2.1054,0,2.0929,2.0961,2.0948,2.0981,2.0995,2.0973,2.099,2.0992,2.0988,2.0999,2.0995,2.1008,2.0986,2.0989,2.1004,2.1,2.1028,2.0996,2.1014,2.1015,2.1014,2.1084,2.1097,2.1147,2.1061,2.1062,2.1063,0,2.0989,2.0996,2.1031,2.1029,2.1035,2.105,2.1058,2.1069,2.1072,2.1068,2.1074,2.106,2.1081,2.1055,2.1083,2.1062,2.1069,2.1068,2.107,2.1071,2.1041,2.1087,2.1163,2.1171,2.1073,2.1072,2.1072,0,2.1039,2.1057,2.108,2.1083,2.1081,2.1093,2.1093,2.1095,2.1102,2.1109,2.1114,2.1124,2.113,2.1139,2.1129,2.111,2.1159,2.1132,2.1157,2.1158,2.1168,2.1167,2.1246,2.1173,2.1173,2.1173,2.1172,0,2.1094,2.1117,2.1102,2.1117,2.1142,2.1128,2.1154,2.1151,2.1153,2.1168,2.115,2.1164,2.1151,2.1164,2.1157,2.1183,2.1185,2.1183,2.1181,2.1184,2.1185,2.1188,2.1185,2.1175,2.1174,2.1174,2.1173,0,2.1153,2.1145,2.1169,2.1166,2.1166,2.1185,2.1183,2.1197,2.1192,2.1211,2.1215,2.1208,2.1223,2.1214,2.123,2.1225,2.1258,2.1251,2.1257,2.1255,2.1281,2.1279,2.1364,2.1375,2.1296,2.1296,2.1297,0,2.1189,2.1206,2.1205,2.1214,2.1215,2.1229,2.1236,2.1224,2.1232,2.1238,2.1252,2.1265,2.1275,2.1301,2.1298,2.131,2.1303,2.1333,2.1305,2.1309,2.1304,2.1303,2.1305,2.1338,2.1339,2.134,2.134,0,2.1253,2.1249,2.1259,2.1269,2.1278,2.1286,2.1292,2.13,2.1288,2.1299,2.1314,2.1322,2.1338,2.1353,2.1364,2.1365,2.1351,2.135,2.1356,2.1359,2.1362,2.1361,2.1272,2.1347,2.1347,2.1346,2.1346,2.1345,2.1302,2.1316,2.1318,2.1332,2.1335,2.1341,2.1355,2.1352,2.1364,2.1376,2.1369,2.1387,2.1392,2.1406,2.1409,2.1424,2.1412,2.1422,2.1424,2.1426,2.143,2.1361,2.1426,2.1426,2.1426,2.1426,2.1425,0,2.1365,2.1366,2.1378,2.1387,2.1398,2.1385,2.1391,2.1401,2.1417,2.1423,2.1433,2.1452,2.1466,2.1465,2.1479,2.1491,2.1485,2.1495,2.1494,2.1494,2.1439,2.1432,2.15,2.15,2.15,2.15,2.15,2.1499,2.14,2.1423,2.142,2.1446,2.1447,2.1464,2.1469,2.1476,2.148,2.1501,2.1513,2.1512,2.1515,2.1529,2.1542,2.1542,2.1548,2.156,2.1557,2.1505,2.1498,2.1491,2.1484,2.1561,2.1561,2.1611,2.1611,2.1611]},{"header":{"parameterUnit":"m.s-1","parameterCategory":1,"la1":30.2991,"la2":30.254,"lo1":-89.0895,"lo2":-89.0444,"dy":0.0017,"dx":0.0017,"nx":28,"ny":28,"refTime":"2024-02-19T03:00:00:Z","depth":0,"parameterNumber":3,"parameterNumberName":"V-component_of_WINDS"},"data":[0,0,0,0,0,0,0,0,0,0,0,0,0,0,0,0,0,0,0,0,0,0,0,0,0,0,0,0,0,0,0,0,0,0,0,0,0,0,0,0,0,0,0,0,0,0,0,0,0,0,0,0,0,0,0,0,0,0,2.7383,2.7384,0,2.7446,2.7446,2.7447,2.7474,2.7474,2.7474,2.7474,2.7534,2.7536,2.7538,0,0,0,0,0,0,0,0,0,0,0,0,0,2.728,2.7282,2.7383,2.7384,2.7385,2.7446,2.7446,2.7447,2.7474,2.7474,2.7474,2.7474,2.7534,2.7536,2.7538,0,0,0,0,0,0,0,0,0,0,0,0,0,2.7332,2.7283,2.7383,2.7405,2.7408,2.7445,2.7446,2.7448,2.7474,2.7474,2.7474,2.7474,2.7533,2.7536,2.7538,2.7557,0,0,2.7546,2.7547,0,0,0,0,0,0,0,0,2.7329,2.7336,2.7401,2.7404,2.7407,2.7452,2.7433,2.7484,2.7474,2.7449,2.7474,2.7474,2.7507,2.7512,2.7524,2.7559,2.7562,2.7546,2.7548,2.7549,2.755,0,0,0,0,0,0,0,2.7326,2.7333,2.7408,2.7402,2.7406,2.741,2.7418,2.7442,2.7478,2.7451,2.7453,2.7461,2.7508,2.7521,2.7525,2.7563,2.7546,2.7548,2.755,2.7551,2.7613,2.7613,0,0,0,0,0,0,2.7319,2.733,2.7406,2.741,2.7367,2.7412,2.742,2.7438,2.7478,2.7484,2.7461,2.7462,2.7517,2.7522,2.7527,2.755,2.7549,2.7551,2.7553,2.7613,2.7613,2.7613,0,0,0,0,0,0,2.7317,2.7325,2.7403,2.737,2.7381,2.7414,2.7433,2.7439,2.7452,2.7485,2.7491,2.7467,2.7517,2.7524,2.7549,2.7552,2.7552,2.7555,2.7613,2.7613,2.7613,2.7595,0,0,0,0,0,0,2.7314,2.7325,2.7334,2.7371,2.7382,2.7425,2.7434,2.744,2.7457,2.7458,2.7493,2.7498,2.7517,2.7545,2.7551,2.7556,2.7557,2.7613,2.7613,2.7613,2.7595,2.7595,2.7594,0,0,0,0,0,2.731,2.7326,2.7334,2.7343,2.7395,2.7426,2.7432,2.7455,2.7457,2.7465,2.7485,2.7497,2.755,2.7547,2.7554,2.756,2.7613,2.7613,2.7613,2.7596,2.7595,2.7594,0,0,0,0,0,0,2.7289,2.7331,2.7341,2.737,2.7394,2.743,2.7441,2.7453,2.7476,2.7477,2.7503,2.751,2.7532,2.7548,2.7544,2.7578,2.7582,2.7584,2.7566,2.7566,2.7565,2.756,2.7559,0,0,0,0,0,2.7287,2.731,2.7346,2.7368,2.7379,2.7408,2.7422,2.7437,2.7463,2.7473,2.7495,2.7518,2.754,2.7554,2.7576,2.7598,2.7604,2.7604,2.7604,2.7603,2.7604,2.7614,2.7614,2.7614,2.7614,2.7614,0,0,2.7285,2.7311,2.7324,2.7364,2.7385,2.7405,2.7417,2.7439,2.7454,2.7476,2.7501,2.7517,2.7544,2.7567,2.7578,2.7581,2.7605,2.7603,2.7602,2.7604,2.7614,2.7614,2.7614,2.7614,2.7614,2.7614,0,0,2.7291,2.7314,2.7334,2.7353,2.7384,2.7402,2.7406,2.744,2.7452,2.7478,2.7493,2.751,2.7548,2.7566,2.758,2.7588,2.7599,2.7594,2.759,2.7599,2.7599,2.7599,2.76,2.76,2.7595,2.7595,2.7595,0,2.7284,2.7318,2.7342,2.7363,2.7378,2.7399,2.7417,2.7435,2.747,2.7479,2.7483,2.7528,2.7548,2.7573,2.7575,2.7586,2.759,2.7591,2.7597,2.7598,2.7598,2.7599,2.76,2.7594,2.7594,2.7595,2.7595,0,2.7306,2.7329,2.7341,2.7375,2.7391,2.7411,2.7435,2.7449,2.7462,2.7479,2.7502,2.7526,2.7552,2.7559,2.7572,2.7585,2.7586,2.7593,2.7598,2.7597,2.7598,2.7599,2.7593,2.7593,2.7594,2.7594,0,0,2.7303,2.7348,2.7351,2.7365,2.7399,2.7416,2.7434,2.746,2.747,2.7493,2.7508,2.7537,2.7543,2.7559,2.7573,2.7581,2.7583,2.7587,2.7587,2.7584,2.7597,2.7591,2.7591,2.759,2.759,2.7591,2.7594,0,2.7313,2.7349,2.7369,2.7396,2.7415,2.7433,2.7448,2.7469,2.7485,2.7502,2.7518,2.7538,2.7546,2.7554,2.7563,2.7581,2.7586,2.7581,2.7602,2.7603,2.7595,2.7593,2.7587,2.759,2.7595,2.7595,2.7595,0,2.733,2.7352,2.738,2.7408,2.7417,2.7431,2.7454,2.7472,2.7494,2.7504,2.752,2.7534,2.7551,2.7554,2.7577,2.7574,2.7583,2.7592,2.7593,2.7596,2.7599,2.7594,2.7591,2.7591,2.7597,2.7597,2.7596,0,2.7322,2.7359,2.738,2.7392,2.7426,2.7434,2.7448,2.7471,2.7484,2.7503,2.7512,2.7533,2.7544,2.7559,2.7577,2.7578,2.7597,2.7602,2.7604,2.7604,2.7608,2.7608,2.7606,2.7615,2.7615,2.7615,2.7615,0,2.733,2.7347,2.7377,2.739,2.7407,2.7428,2.7445,2.746,2.7479,2.7494,2.751,2.7522,2.7546,2.7561,2.7574,2.759,2.7595,2.7603,2.7606,2.7601,2.76,2.7607,2.7607,2.7615,2.7615,2.7615,2.7615,0,2.7325,2.7346,2.737,2.7399,2.7407,2.7418,2.7442,2.7454,2.7469,2.7487,2.7492,2.7516,2.7534,2.7553,2.7578,2.7587,2.7601,2.7606,2.7594,2.7596,2.7596,2.7595,2.7599,2.7599,2.7609,2.7609,2.7609,0,2.7329,2.7342,2.7372,2.7383,2.7397,2.7414,2.7427,2.7447,2.746,2.7484,2.7492,2.7512,2.7528,2.7556,2.7574,2.7592,2.7597,2.7597,2.76,2.7594,2.7595,2.7594,2.7595,2.7596,2.7596,2.7596,2.7595,0,2.7333,2.7342,2.736,2.7381,2.7396,2.7414,2.7432,2.7439,2.7463,2.7475,2.7494,2.7507,2.7531,2.7549,2.7568,2.7581,2.7591,2.7594,2.7595,2.759,2.7582,2.7585,2.759,2.7594,2.7594,2.7594,2.7594,2.7594,2.7332,2.7343,2.7365,2.7384,2.7399,2.7415,2.7426,2.7442,2.7459,2.748,2.7491,2.7509,2.7527,2.7555,2.7567,2.758,2.7583,2.7585,2.7585,2.7586,2.7583,2.758,2.7583,2.7583,2.7583,2.7584,2.7584,0,2.7335,2.7349,2.7366,2.739,2.7404,2.7413,2.7432,2.7443,2.7459,2.7476,2.7492,2.7511,2.7528,2.7547,2.7564,2.757,2.7575,2.7574,2.7574,2.7576,2.758,2.7577,2.757,2.757,2.757,2.757,2.757,2.757,2.7338,2.7356,2.7367,2.7392,2.7406,2.7424,2.7434,2.7447,2.7461,2.7482,2.7496,2.7508,2.7525,2.7543,2.7558,2.7563,2.7568,2.7565,2.7571,2.7575,2.7576,2.7577,2.7574,2.7566,2.7566,2.7565,2.7565,2.7565]}]]